[[{"header":{"parameterUnit":"m.s-1","parameterCategory":1,"la1":30.2991,"la2":30.254,"lo1":-89.0895,"lo2":-89.0444,"dy":0.0017,"dx":0.0017,"nx":28,"ny":28,"refTime":"2023-11-17T03:00:00:Z","depth":0,"parameterNumber":2,"parameterNumberName":"U-component_of_WINDS"},"data":[0,0,0,0,0,0,0,0,0,0,0,0,0,0,0,0,0,0,0,0,0,0,0,0,0,0,0,0,0,0,0,0,0,0,0,0,0,0,0,0,0,0,0,0,0,0,0,0,0,0,0,0,0,0,0,0,0,0,0.3661,0.366,0,0.358,0.3579,0.3578,0.3542,0.3542,0.3542,0.3542,0.3459,0.3457,0.3454,0,0,0,0,0,0,0,0,0,0,0,0,0,0.3784,0.3782,0.3661,0.366,0.3659,0.358,0.3579,0.3578,0.3541,0.3542,0.3542,0.3542,0.346,0.3457,0.3454,0,0,0,0,0,0,0,0,0,0,0,0,0,0.372,0.3781,0.3662,0.3632,0.3628,0.3581,0.3579,0.3578,0.3541,0.3542,0.3542,0.3542,0.3461,0.3457,0.3454,0.343,0,0,0.3443,0.3442,0,0,0,0,0,0,0,0,0.3723,0.3715,0.3637,0.3634,0.3629,0.3571,0.3592,0.3528,0.3541,0.3574,0.3542,0.3542,0.3496,0.349,0.3474,0.3427,0.3423,0.3443,0.3441,0.344,0.3439,0,0,0,0,0,0,0,0.3728,0.3719,0.3629,0.3636,0.3631,0.3622,0.3613,0.358,0.3536,0.3571,0.3569,0.356,0.3494,0.3478,0.3472,0.3422,0.3443,0.344,0.3438,0.3437,0.335,0.335,0,0,0,0,0,0,0.3737,0.3723,0.3632,0.3627,0.3678,0.362,0.361,0.359,0.3536,0.3528,0.356,0.3558,0.3484,0.3476,0.3469,0.3437,0.344,0.3436,0.3434,0.335,0.335,0.3349,0,0,0,0,0,0,0.374,0.373,0.3635,0.3674,0.3661,0.3617,0.3595,0.3588,0.3572,0.3527,0.3519,0.3551,0.3483,0.3474,0.344,0.3434,0.3435,0.3432,0.335,0.335,0.335,0.3374,0,0,0,0,0,0,0.3744,0.3731,0.3722,0.3674,0.3659,0.3608,0.3595,0.3586,0.3566,0.3563,0.3517,0.3509,0.3483,0.3445,0.3437,0.3429,0.3429,0.3351,0.335,0.335,0.3374,0.3375,0.3376,0,0,0,0,0,0.3748,0.3732,0.3721,0.3711,0.3647,0.3607,0.3599,0.3569,0.3566,0.3556,0.3527,0.351,0.3436,0.3442,0.3432,0.3424,0.3351,0.335,0.335,0.3373,0.3375,0.3376,0,0,0,0,0,0,0.378,0.3725,0.3713,0.368,0.3649,0.3601,0.3588,0.3571,0.354,0.3539,0.3503,0.3493,0.3462,0.344,0.3447,0.3398,0.3392,0.339,0.3414,0.3414,0.3415,0.3421,0.3426,0,0,0,0,0,0.3783,0.3756,0.371,0.3686,0.367,0.3632,0.3614,0.3593,0.3559,0.3546,0.3514,0.3482,0.3451,0.3432,0.3401,0.3371,0.336,0.336,0.3361,0.3362,0.336,0.3341,0.334,0.3348,0.3348,0.3348,0,0,0.379,0.3756,0.3741,0.3691,0.3664,0.3636,0.3621,0.3592,0.3571,0.3541,0.3507,0.3483,0.3445,0.3412,0.3396,0.3392,0.3355,0.3361,0.3362,0.3359,0.3341,0.334,0.3339,0.3347,0.3347,0.3347,0,0,0.3787,0.3759,0.3736,0.3709,0.3669,0.3643,0.3638,0.3592,0.3575,0.354,0.3517,0.3492,0.344,0.3413,0.3392,0.3379,0.3363,0.337,0.3375,0.3357,0.3357,0.3356,0.3351,0.3349,0.3369,0.3369,0.3369,0,0.38,0.3757,0.3726,0.3698,0.3677,0.3648,0.3624,0.36,0.3551,0.3537,0.3533,0.3467,0.3439,0.34,0.3396,0.3381,0.3373,0.3375,0.3359,0.3358,0.3357,0.3352,0.335,0.337,0.337,0.337,0.3369,0,0.3775,0.3746,0.3732,0.3685,0.3662,0.3637,0.3601,0.3582,0.3563,0.3538,0.3503,0.3469,0.343,0.3419,0.3401,0.3377,0.3376,0.3366,0.336,0.3358,0.3352,0.335,0.3371,0.3371,0.3371,0.337,0,0,0.379,0.3726,0.3722,0.37,0.3653,0.363,0.3603,0.3565,0.3548,0.3516,0.3492,0.3449,0.3439,0.3416,0.3395,0.338,0.3371,0.3372,0.337,0.3372,0.3341,0.3348,0.3346,0.336,0.3359,0.3359,0.3344,0,0.378,0.373,0.3701,0.3663,0.3635,0.3608,0.3584,0.3553,0.3529,0.3502,0.3475,0.3444,0.3435,0.342,0.3404,0.3375,0.3364,0.3376,0.3337,0.3336,0.3347,0.3343,0.335,0.3338,0.3342,0.3341,0.3341,0,0.3762,0.373,0.3689,0.3645,0.3632,0.3611,0.3574,0.3549,0.3512,0.3496,0.347,0.3448,0.3419,0.3415,0.3373,0.3382,0.3364,0.3348,0.3347,0.3341,0.3338,0.3337,0.3334,0.3332,0.3337,0.3338,0.3338,0,0.3776,0.3723,0.3691,0.3674,0.3621,0.3607,0.3585,0.3548,0.3527,0.3495,0.3481,0.3445,0.3426,0.3399,0.3368,0.3369,0.3329,0.3323,0.3314,0.3315,0.3307,0.3308,0.33,0.3297,0.3297,0.3297,0.3297,0,0.3768,0.3744,0.3697,0.3677,0.3649,0.3616,0.3589,0.3565,0.3533,0.3508,0.3482,0.3459,0.3421,0.3393,0.3369,0.3338,0.3329,0.3315,0.3309,0.3317,0.3318,0.3304,0.3304,0.3296,0.3296,0.3297,0.3297,0,0.3779,0.3746,0.371,0.3663,0.3651,0.3632,0.3592,0.3572,0.3547,0.3515,0.3506,0.3466,0.3432,0.3399,0.3354,0.3338,0.3306,0.3299,0.3319,0.3315,0.3307,0.3308,0.3289,0.3285,0.3286,0.3286,0.3286,0,0.3776,0.3756,0.3707,0.3689,0.3667,0.3637,0.3615,0.3582,0.356,0.3517,0.3502,0.3466,0.3436,0.3383,0.335,0.3315,0.3305,0.3301,0.33,0.3308,0.3304,0.3306,0.3303,0.3302,0.3302,0.3302,0.3302,0,0.3773,0.3758,0.3727,0.3691,0.3665,0.3635,0.3604,0.359,0.3551,0.3528,0.3493,0.3469,0.3423,0.3387,0.3348,0.3325,0.3307,0.3303,0.3299,0.3307,0.3319,0.3311,0.332,0.3304,0.3303,0.3303,0.3303,0.3303,0.3776,0.3757,0.3719,0.3686,0.3659,0.3631,0.3609,0.3581,0.3551,0.351,0.3492,0.3457,0.342,0.3366,0.3343,0.3315,0.3311,0.3305,0.3303,0.3302,0.3303,0.3324,0.3308,0.3308,0.3308,0.3308,0.3308,0,0.3771,0.3745,0.3715,0.3672,0.3646,0.3631,0.3596,0.3575,0.3544,0.3511,0.3482,0.3441,0.3407,0.3371,0.3334,0.3318,0.3309,0.3309,0.331,0.3305,0.331,0.3317,0.3318,0.3318,0.3318,0.3318,0.3318,0.3318,0.3765,0.3733,0.3713,0.3666,0.3641,0.3605,0.3586,0.356,0.3534,0.3489,0.346,0.3437,0.3403,0.3364,0.3331,0.3321,0.3309,0.3312,0.33,0.3305,0.3304,0.3304,0.331,0.3309,0.3309,0.3296,0.3296,0.3296]},{"header":{"parameterUnit":"m.s-1","parameterCategory":1,"la1":30.2991,"la2":30.254,"lo1":-89.0895,"lo2":-89.0444,"dy":0.0017,"dx":0.0017,"nx":28,"ny":28,"refTime":"2023-11-17T03:00:00:Z","depth":0,"parameterNumber":3,"parameterNumberName":"V-component_of_WINDS"},"data":[0,0,0,0,0,0,0,0,0,0,0,0,0,0,0,0,0,0,0,0,0,0,0,0,0,0,0,0,0,0,0,0,0,0,0,0,0,0,0,0,0,0,0,0,0,0,0,0,0,0,0,0,0,0,0,0,0,0,-3.2269,-3.227,0,-3.2336,-3.2337,-3.2337,-3.2315,-3.2314,-3.2312,-3.2311,-3.238,-3.2383,-3.2386,0,0,0,0,0,0,0,0,0,0,0,0,0,-3.2125,-3.2127,-3.2269,-3.227,-3.2271,-3.2336,-3.2337,-3.2338,-3.2316,-3.2314,-3.2312,-3.231,-3.2378,-3.2382,-3.2386,0,0,0,0,0,0,0,0,0,0,0,0,0,-3.2189,-3.2128,-3.2269,-3.2268,-3.2268,-3.2336,-3.2337,-3.2338,-3.2316,-3.2314,-3.2312,-3.231,-3.2377,-3.2382,-3.2387,-3.2459,0,0,-3.2401,-3.2403,0,0,0,0,0,0,0,0,-3.2185,-3.2194,-3.2267,-3.2268,-3.2269,-3.2315,-3.2311,-3.2378,-3.2317,-3.2298,-3.2311,-3.2309,-3.236,-3.2366,-3.2383,-3.2462,-3.2465,-3.2401,-3.2404,-3.2406,-3.2408,0,0,0,0,0,0,0,-3.2181,-3.2191,-3.2296,-3.2268,-3.2269,-3.2264,-3.2271,-3.2323,-3.234,-3.2299,-3.2298,-3.2306,-3.236,-3.2379,-3.2385,-3.2466,-3.2401,-3.2406,-3.2408,-3.241,-3.261,-3.2613,0,0,0,0,0,0,-3.2176,-3.2188,-3.2293,-3.2298,-3.2221,-3.2269,-3.2276,-3.2302,-3.234,-3.2343,-3.2308,-3.2305,-3.2372,-3.2379,-3.2387,-3.2475,-3.2406,-3.2411,-3.2414,-3.2608,-3.2611,-3.2614,0,0,0,0,0,0,-3.2173,-3.2185,-3.2291,-3.2242,-3.2255,-3.2274,-3.2303,-3.2305,-3.2323,-3.2346,-3.2349,-3.2324,-3.237,-3.238,-3.2442,-3.2477,-3.2413,-3.2417,-3.2605,-3.2609,-3.2612,-3.2652,0,0,0,0,0,0,-3.2169,-3.2185,-3.2212,-3.2243,-3.2258,-3.2344,-3.2305,-3.2308,-3.2332,-3.2328,-3.2362,-3.2365,-3.2369,-3.2435,-3.2446,-3.2483,-3.2421,-3.2602,-3.2607,-3.2611,-3.2648,-3.2657,-3.2665,0,0,0,0,0,-3.2164,-3.222,-3.2213,-3.2226,-3.2292,-3.2346,-3.2355,-3.2358,-3.2335,-3.2363,-3.2377,-3.2364,-3.2472,-3.2441,-3.2454,-3.2493,-3.26,-3.2605,-3.2611,-3.2644,-3.2655,-3.2665,0,0,0,0,0,0,-3.2192,-3.2224,-3.2217,-3.2285,-3.2313,-3.2342,-3.2377,-3.2369,-3.2405,-3.24,-3.2403,-3.2411,-3.2474,-3.249,-3.2455,-3.2566,-3.2532,-3.2541,-3.2553,-3.2564,-3.2572,-3.2567,-3.2425,0,0,0,0,0,-3.2206,-3.2247,-3.2273,-3.233,-3.2345,-3.2359,-3.2383,-3.2383,-3.2412,-3.2424,-3.2443,-3.2472,-3.2513,-3.2539,-3.2577,-3.265,-3.2658,-3.2683,-3.2692,-3.2698,-3.2706,-3.2747,-3.2759,-3.2632,-3.2632,-3.2632,0,0,-3.2236,-3.2258,-3.2284,-3.2337,-3.2359,-3.2401,-3.2369,-3.2415,-3.2447,-3.2431,-3.249,-3.2506,-3.2539,-3.2606,-3.2637,-3.2621,-3.2743,-3.2706,-3.2711,-3.2714,-3.2754,-3.2766,-3.2776,-3.2636,-3.2635,-3.2634,0,0,-3.2312,-3.2333,-3.2384,-3.2407,-3.244,-3.245,-3.2462,-3.2493,-3.2503,-3.2563,-3.2552,-3.259,-3.2659,-3.2684,-3.2705,-3.2793,-3.2782,-3.2805,-3.2849,-3.2889,-3.2899,-3.2908,-3.294,-3.2952,-3.2812,-3.2813,-3.2813,0,-3.2344,-3.2408,-3.2411,-3.2459,-3.2483,-3.2471,-3.2523,-3.2545,-3.259,-3.2607,-3.2588,-3.2676,-3.2697,-3.2772,-3.2793,-3.2811,-3.2826,-3.2801,-3.2898,-3.2906,-3.2915,-3.2946,-3.2958,-3.2815,-3.2815,-3.2815,-3.2814,0,-3.2447,-3.2491,-3.2529,-3.2573,-3.2601,-3.2651,-3.2662,-3.2691,-3.2689,-3.2701,-3.2763,-3.2788,-3.2832,-3.285,-3.2848,-3.2925,-3.2914,-3.2896,-3.2863,-3.293,-3.2959,-3.297,-3.2819,-3.2818,-3.2817,-3.2817,0,0,-3.2541,-3.2588,-3.2601,-3.2622,-3.2659,-3.2694,-3.2744,-3.2787,-3.2812,-3.2844,-3.2886,-3.2946,-3.2931,-3.2956,-3.2957,-3.2992,-3.3062,-3.2971,-3.2972,-3.2988,-3.3149,-3.3162,-3.3175,-3.3055,-3.3058,-3.3059,-3.3146,0,-3.2621,-3.2708,-3.2713,-3.2793,-3.2835,-3.2825,-3.2869,-3.2897,-3.2909,-3.2947,-3.2961,-3.3004,-3.298,-3.2995,-3.303,-3.3046,-3.3094,-3.304,-3.3096,-3.3097,-3.3088,-3.319,-3.3204,-3.3284,-3.3157,-3.3159,-3.3161,0,-3.2725,-3.276,-3.2844,-3.2877,-3.2895,-3.2934,-3.2975,-3.3012,-3.3044,-3.3051,-3.3079,-3.3076,-3.3129,-3.3094,-3.3166,-3.3129,-3.3152,-3.3164,-3.3167,-3.3173,-3.3133,-3.3199,-3.331,-3.3322,-3.3178,-3.3177,-3.3176,0,-3.2786,-3.2855,-3.2915,-3.2932,-3.2972,-3.3,-3.3018,-3.3048,-3.3075,-3.3111,-3.3129,-3.317,-3.3193,-3.3226,-3.3235,-3.3208,-3.3308,-3.3273,-3.3316,-3.3316,-3.3337,-3.3336,-3.3454,-3.3352,-3.3351,-3.3351,-3.3351,0,-3.2874,-3.2926,-3.2943,-3.298,-3.3038,-3.3044,-3.3102,-3.3118,-3.3146,-3.3186,-3.318,-3.3218,-3.3227,-3.3268,-3.3275,-3.3335,-3.3345,-3.3353,-3.3354,-3.3353,-3.3353,-3.3369,-3.3363,-3.3354,-3.3354,-3.3353,-3.3353,0,-3.2952,-3.2965,-3.303,-3.3063,-3.3073,-3.3114,-3.3143,-3.3179,-3.3191,-3.3243,-3.3255,-3.3275,-3.3322,-3.3334,-3.339,-3.3396,-3.3466,-3.3462,-3.3456,-3.3455,-3.3498,-3.3494,-3.3631,-3.3649,-3.3534,-3.3535,-3.3536,0,-3.3008,-3.3048,-3.3086,-3.3112,-3.3132,-3.3175,-3.3202,-3.321,-3.3239,-3.328,-3.3311,-3.3358,-3.3395,-3.3471,-3.3491,-3.3535,-3.3532,-3.3577,-3.3538,-3.3537,-3.3533,-3.3531,-3.3536,-3.3584,-3.3585,-3.3586,-3.3587,0,-3.3105,-3.311,-3.315,-3.3192,-3.3225,-3.3259,-3.3291,-3.3314,-3.3327,-3.336,-3.3408,-3.3437,-3.3496,-3.3542,-3.3587,-3.3606,-3.3599,-3.3599,-3.3612,-3.3611,-3.3606,-3.361,-3.3476,-3.3596,-3.3595,-3.3594,-3.3594,-3.3594,-3.3174,-3.321,-3.3242,-3.3287,-3.3313,-3.3344,-3.3379,-3.3397,-3.3438,-3.3486,-3.3488,-3.3541,-3.3574,-3.3633,-3.3655,-3.3697,-3.3684,-3.3701,-3.3706,-3.371,-3.3714,-3.3599,-3.3705,-3.3705,-3.3705,-3.3705,-3.3704,0,-3.3272,-3.3293,-3.3334,-3.338,-3.3416,-3.3407,-3.3443,-3.3473,-3.352,-3.3552,-3.3589,-3.3646,-3.3692,-3.3716,-3.3762,-3.3791,-3.3789,-3.3803,-3.3801,-3.3806,-3.3723,-3.3708,-3.3804,-3.3804,-3.3804,-3.3804,-3.3804,-3.3803,-3.3327,-3.3387,-3.3396,-3.347,-3.3491,-3.3543,-3.3564,-3.3593,-3.3619,-3.3682,-3.3721,-3.3736,-3.3765,-3.3814,-3.3856,-3.3862,-3.3879,-3.3894,-3.3899,-3.3821,-3.3811,-3.3802,-3.3788,-3.3898,-3.3898,-3.3978,-3.3979,-3.3979]}]]